Meteo Giornale » Osservazioni meteo Brasile » Belem Aeroporto
ore: 12:00 - Osservazioni Meteo Belem Aeroporto
Lat. 1° 23' S Lon. 48° 29' W Alt. 16 metri s.l.m.
33 °C
Nuvoloso
Temp. 24 Ore
25 °C
33 °C
Est
18.5 Km/h
Dew point 23 °C
Umidità 55 %
Visibilità 10 Km
Il sole sorge alle ore 06:11
Il sole tramonta alle ore 18:16
| Data e Ora | Cielo e Fenomeni | T °C | DP °C | Um. % | Pres. hPa | Vis. km | Vento km/h | |
|---|---|---|---|---|---|---|---|---|
| Oggi h: 12:00 | Nuvoloso | 33 | 23 | 55 | 1013 | 10 | E 18.5 | |
| Oggi h: 11:00 | Poco Nuvoloso | 32 | 23 | 59 | 1014 | 10 | NE 18.5 | |
| Oggi h: 10:00 | Sereno | 30 | 23 | 66 | 1014 | 10 | E/NE 20.3 | |
| Oggi h: 09:00 | Sereno | 29 | 24 | 74 | 1013 | 10 | E/NE 18.5 | |
| Oggi h: 08:00 | Sereno | 27 | 24 | 83 | 1012 | 10 | E/NE 11.1 | |
| Oggi h: 07:00 | Sereno | 25 | 23 | 88 | 1011 | 10 | E/NE 14.8 | |
| Oggi h: 06:00 | Sereno | 25 | 23 | 88 | 1011 | 10 | E/NE 14.8 | |
| Oggi h: 05:00 | Nuvoloso | 25 | 23 | 88 | 1010 | 10 | E/NE 16.7 | |
| Oggi h: 04:00 | Nuvoloso | 25 | 23 | 88 | 1010 | 10 | E/NE 16.7 | |
| Oggi h: 03:00 | Molto Nuvoloso | 25 | 23 | 88 | 1010 | 10 | E/NE 16.7 | |
| Oggi h: 02:00 | Molto Nuvoloso | 26 | 23 | 83 | 1012 | 10 | E/NE 14.8 | |
| Oggi h: 01:00 | Molto Nuvoloso | 26 | 23 | 83 | 1012 | 10 | E/NE 16.7 | |
| Oggi h: 00:00 | Molto Nuvoloso | 26 | 23 | 83 | 1013 | 10 | E 16.7 | |
| Ieri h: 23:00 | Molto Nuvoloso | 27 | 23 | 78 | 1013 | 10 | E/NE 20.3 | |
| Ieri h: 22:00 | Molto Nuvoloso | 27 | 24 | 83 | 1013 | 10 | E/NE 18.5 | |
| Ieri h: 21:00 | Molto Nuvoloso | 28 | 24 | 78 | 1012 | 10 | NE 20.3 | |
| Ieri h: 20:00 | Molto Nuvoloso | 29 | 25 | 79 | 1011 | 10 | N/NE 13 | |
| Ieri h: 19:00 | Molto Nuvoloso | 29 | 26 | 83 | 1010 | 10 | N 13 | |
| Ieri h: 18:00 | Molto Nuvoloso | 30 | 26 | 79 | 1010 | 10 | N 16.7 | |
| Ieri h: 17:00 | Molto Nuvoloso | 30 | 25 | 74 | 1010 | 10 | N 18.5 | |
| Ieri h: 16:00 | Molto Nuvoloso | 31 | 25 | 70 | 1010 | 10 | N/NO 14.8 | |
| Ieri h: 15:00 | Molto Nuvoloso | 31 | 26 | 74 | 1010 | 10 | N/NO 14.8 | |
| Ieri h: 14:00 | Molto Nuvoloso | 32 | 24 | 62 | 1011 | 10 | S 9.3 | |
| Ieri h: 13:00 | Molto Nuvoloso | 32 | 25 | 66 | 1012 | 10 | S 7.4 | |



